SWA5150 KMCO-KPIT

Flight info

Callsign SWA5150
Flight time N/A
Altitude 37000
Route FATHE4 VIYAP Q69 RICCS LEJOY DEMME5
Aircraft B38M/M-SDE1FGHILORVWXY/HB1

Departure

Time 2026-04-20 22:23
Airport Orlando International Airport (KMCO)

Arrival

Time N/A
Airport Pittsburgh International Airport (KPIT)
Time Latitude Longitude Altitude Speed Heading
2026-04-20 21:32 28.43354 -81.30013 103 ft 0 kts 341°
2026-04-20 21:37 28.43354 -81.30012 103 ft 0 kts 341°
2026-04-20 21:41 28.43353 -81.30012 103 ft 0 kts 341°
2026-04-20 21:52 28.43352 -81.30012 103 ft 0 kts 341°
2026-04-20 22:06 28.43348 -81.30010 94 ft 3 kts 341°
2026-04-20 22:07 28.43329 -81.30003 93 ft 3 kts 345°
2026-04-20 22:07 28.43309 -81.29999 101 ft 3 kts 358°
2026-04-20 22:07 28.43291 -81.30002 103 ft 3 kts 32°
2026-04-20 22:07 28.43283 -81.30012 103 ft 0 kts 71°
2026-04-20 22:09 28.43283 -81.30011 103 ft 1 kts 71°
2026-04-20 22:09 28.43286 -81.30000 103 ft 3 kts 71°
2026-04-20 22:09 28.43295 -81.29972 102 ft 5 kts 71°
2026-04-20 22:10 28.43309 -81.29930 103 ft 7 kts 68°
2026-04-20 22:10 28.43328 -81.29874 102 ft 8 kts 69°
2026-04-20 22:10 28.43320 -81.29818 104 ft 7 kts 137°
2026-04-20 22:10 28.43273 -81.29804 106 ft 8 kts 177°
2026-04-20 22:11 28.43212 -81.29803 106 ft 10 kts 179°
2026-04-20 22:11 28.43141 -81.29802 106 ft 11 kts 181°
2026-04-20 22:11 28.43061 -81.29801 106 ft 12 kts 179°
2026-04-20 22:11 28.42981 -81.29800 105 ft 11 kts 179°
2026-04-20 22:12 28.42915 -81.29799 105 ft 10 kts 179°
2026-04-20 22:12 28.42836 -81.29797 105 ft 12 kts 180°
2026-04-20 22:12 28.42744 -81.29797 105 ft 14 kts 180°
2026-04-20 22:12 28.42657 -81.29797 105 ft 11 kts 179°
2026-04-20 22:13 28.42579 -81.29796 105 ft 12 kts 179°
2026-04-20 22:13 28.42492 -81.29795 105 ft 14 kts 179°
2026-04-20 22:13 28.42413 -81.29797 105 ft 10 kts 197°
2026-04-20 22:13 28.42366 -81.29855 104 ft 11 kts 257°
2026-04-20 22:14 28.42363 -81.29945 106 ft 12 kts 268°
2026-04-20 22:14 28.42362 -81.30041 106 ft 13 kts 269°
2026-04-20 22:14 28.42360 -81.30140 106 ft 12 kts 269°
2026-04-20 22:14 28.42359 -81.30249 105 ft 15 kts 269°
2026-04-20 22:15 28.42357 -81.30362 104 ft 14 kts 268°
2026-04-20 22:15 28.42350 -81.30478 108 ft 11 kts 265°
2026-04-20 22:15 28.42344 -81.30568 108 ft 12 kts 265°
2026-04-20 22:15 28.42338 -81.30666 108 ft 10 kts 266°
2026-04-20 22:16 28.42332 -81.30750 108 ft 12 kts 265°
2026-04-20 22:16 28.42324 -81.30852 102 ft 14 kts 265°
2026-04-20 22:16 28.42317 -81.30949 102 ft 12 kts 266°
2026-04-20 22:16 28.42324 -81.31054 102 ft 14 kts 276°
2026-04-20 22:17 28.42343 -81.31172 102 ft 16 kts 281°
2026-04-20 22:17 28.42348 -81.31305 103 ft 18 kts 271°
2026-04-20 22:17 28.42350 -81.31425 103 ft 14 kts 270°
2026-04-20 22:17 28.42348 -81.31540 104 ft 15 kts 269°
2026-04-20 22:18 28.42347 -81.31661 106 ft 15 kts 270°
2026-04-20 22:18 28.42347 -81.31771 108 ft 14 kts 270°
2026-04-20 22:18 28.42283 -81.31831 110 ft 13 kts 186°
2026-04-20 22:18 28.42187 -81.31855 110 ft 15 kts 192°
2026-04-20 22:19 28.42093 -81.31877 107 ft 12 kts 186°
2026-04-20 22:19 28.41997 -81.31878 105 ft 16 kts 180°
2026-04-20 22:19 28.41883 -81.31876 105 ft 15 kts 179°
2026-04-20 22:19 28.41786 -81.31875 105 ft 11 kts 179°
2026-04-20 22:20 28.41697 -81.31874 103 ft 14 kts 179°
2026-04-20 22:20 28.41592 -81.31873 102 ft 13 kts 182°
2026-04-20 22:20 28.41545 -81.31951 102 ft 14 kts 269°
2026-04-20 22:20 28.41544 -81.32056 103 ft 10 kts 269°
2026-04-20 22:21 28.41544 -81.32089 103 ft 1 kts 269°
2026-04-20 22:21 28.41544 -81.32101 104 ft 2 kts 269°
2026-04-20 22:21 28.41544 -81.32123 104 ft 4 kts 269°
2026-04-20 22:21 28.41543 -81.32157 104 ft 5 kts 274°
2026-04-20 22:22 28.41566 -81.32192 103 ft 6 kts 336°
2026-04-20 22:22 28.41617 -81.32196 104 ft 11 kts 360°
2026-04-20 22:22 28.41988 -81.32200 108 ft 95 kts 359°
2026-04-20 22:22 28.42908 -81.32207 122 ft 164 kts 360°
2026-04-20 22:23 28.44065 -81.32212 431 ft 173 kts
2026-04-20 22:23 28.45328 -81.32296 784 ft 193 kts 349°
2026-04-20 22:23 28.46655 -81.32805 1246 ft 210 kts 343°
2026-04-20 22:23 28.48113 -81.33070 1745 ft 220 kts 12°
2026-04-20 22:24 28.49534 -81.32341 2364 ft 235 kts 42°
2026-04-20 22:24 28.50421 -81.30777 3308 ft 239 kts 72°
2026-04-20 22:24 28.50551 -81.28862 4259 ft 251 kts 90°
2026-04-20 22:24 28.50634 -81.26864 5090 ft 253 kts 70°
2026-04-20 22:25 28.51531 -81.25170 5924 ft 257 kts 38°
2026-04-20 22:25 28.53140 -81.24382 6552 ft 257 kts
2026-04-20 22:25 28.54931 -81.24531 6711 ft 261 kts 352°
2026-04-20 22:25 28.56734 -81.24814 6849 ft 261 kts 354°
2026-04-20 22:26 28.58533 -81.25041 6946 ft 261 kts 351°
2026-04-20 22:26 28.60335 -81.25403 6957 ft 264 kts 351°
2026-04-20 22:26 28.62122 -81.25727 6996 ft 264 kts 352°
2026-04-20 22:27 28.65751 -81.26295 8607 ft 267 kts 352°
2026-04-20 22:27 28.67589 -81.26564 9600 ft 266 kts 351°
2026-04-20 22:27 28.69451 -81.26829 10349 ft 276 kts 351°
2026-04-20 22:27 28.71423 -81.27104 10753 ft 295 kts 351°
2026-04-20 22:28 28.73535 -81.27395 11086 ft 316 kts 351°
2026-04-20 22:28 28.75781 -81.27704 11422 ft 334 kts 351°
2026-04-20 22:28 28.78134 -81.28027 11881 ft 346 kts 351°
2026-04-20 22:28 28.80532 -81.28355 12627 ft 348 kts 351°
2026-04-20 22:29 28.82957 -81.28688 13337 ft 353 kts 351°
2026-04-20 22:29 28.85425 -81.28936 14055 ft 358 kts 353°
2026-04-20 22:29 28.87917 -81.29145 14708 ft 361 kts 352°
2026-04-20 22:29 28.90441 -81.29364 15348 ft 366 kts 352°
2026-04-20 22:30 28.92990 -81.29587 15968 ft 370 kts 351°
2026-04-20 22:30 28.95574 -81.29815 16604 ft 374 kts 351°
2026-04-20 22:30 28.98180 -81.30046 17235 ft 377 kts 349°
2026-04-20 22:30 29.00804 -81.30326 17868 ft 380 kts 348°
2026-04-20 22:31 29.03456 -81.30619 18430 ft 385 kts 348°
2026-04-20 22:31 29.06101 -81.30906 18939 ft 389 kts 348°
2026-04-20 22:31 29.08801 -81.31199 19494 ft 391 kts 348°
2026-04-20 22:31 29.11532 -81.31422 20021 ft 396 kts 351°
2026-04-20 22:32 29.14286 -81.31577 20566 ft 398 kts 350°
2026-04-20 22:32 29.17065 -81.31741 21078 ft 401 kts 350°
2026-04-20 22:32 29.19861 -81.31909 21588 ft 403 kts 350°
2026-04-20 22:32 29.22669 -81.32080 22098 ft 406 kts 350°
2026-04-20 22:33 29.25503 -81.32252 22589 ft 408 kts 350°
2026-04-20 22:33 29.28343 -81.32426 23152 ft 410 kts 349°
2026-04-20 22:33 29.31201 -81.32601 23683 ft 412 kts 349°
2026-04-20 22:33 29.34083 -81.32778 24085 ft 416 kts 349°
2026-04-20 22:34 29.36973 -81.32955 24491 ft 418 kts 349°
2026-04-20 22:34 29.39891 -81.33135 24879 ft 421 kts 349°
2026-04-20 22:34 29.42821 -81.33315 25253 ft 423 kts 349°
2026-04-20 22:34 29.45774 -81.33496 25641 ft 426 kts 349°
2026-04-20 22:35 29.48739 -81.33679 26006 ft 428 kts 349°
2026-04-20 22:35 29.51721 -81.33862 26369 ft 431 kts 349°
2026-04-20 22:35 29.54727 -81.34048 26756 ft 433 kts 348°
2026-04-20 22:35 29.57732 -81.34233 27249 ft 432 kts 348°
2026-04-20 22:36 29.60732 -81.34418 27655 ft 433 kts 348°
2026-04-20 22:36 29.63749 -81.34599 27988 ft 436 kts 348°
2026-04-20 22:36 29.66784 -81.34772 28366 ft 437 kts 348°
2026-04-20 22:36 29.69831 -81.34946 28707 ft 440 kts 348°
2026-04-20 22:37 29.72893 -81.35122 29050 ft 442 kts 348°
2026-04-20 22:37 29.75968 -81.35298 29388 ft 444 kts 348°
2026-04-20 22:37 29.79058 -81.35475 29726 ft 446 kts 348°
2026-04-20 22:37 29.82162 -81.35654 30127 ft 446 kts 348°
2026-04-20 22:38 29.85253 -81.35830 30650 ft 443 kts 348°
2026-04-20 22:38 29.88317 -81.36006 31128 ft 440 kts 347°
2026-04-20 22:38 29.91332 -81.36180 31467 ft 440 kts 347°
2026-04-20 22:38 29.94389 -81.36356 31814 ft 440 kts 347°
2026-04-20 22:39 29.97450 -81.36532 32148 ft 440 kts 346°
2026-04-20 22:39 30.00511 -81.36709 32498 ft 441 kts 346°
2026-04-20 22:39 30.03573 -81.36885 32840 ft 441 kts 346°
2026-04-20 22:39 30.06635 -81.37062 33179 ft 441 kts 346°
2026-04-20 22:40 30.09698 -81.37238 33507 ft 441 kts 345°
2026-04-20 22:40 30.12765 -81.37414 33917 ft 441 kts 344°
2026-04-20 22:40 30.15813 -81.37589 34362 ft 437 kts 344°
2026-04-20 22:40 30.18851 -81.37764 34699 ft 436 kts 344°
2026-04-20 22:41 30.21874 -81.37940 35017 ft 435 kts 344°
2026-04-20 22:41 30.24896 -81.38116 35346 ft 434 kts 344°
2026-04-20 22:41 30.27900 -81.38290 35653 ft 432 kts 344°
2026-04-20 22:41 30.30904 -81.38465 35946 ft 431 kts 344°
2026-04-20 22:42 30.32888 -81.38580 36136 ft 431 kts 344°
2026-04-20 22:42 30.35877 -81.38754 36417 ft 430 kts 344°
2026-04-20 22:42 30.38861 -81.38927 36694 ft 429 kts 344°
2026-04-20 22:42 30.41835 -81.39100 36965 ft 428 kts 344°
2026-04-20 22:43 30.44805 -81.39271 37217 ft 427 kts 344°
2026-04-20 22:43 30.47776 -81.39428 37298 ft 427 kts 344°
2026-04-20 22:43 30.53695 -81.39740 37294 ft 424 kts 344°
2026-04-20 22:44 30.59601 -81.40054 37293 ft 425 kts 344°
2026-04-20 22:44 30.65510 -81.40368 37293 ft 425 kts 344°
2026-04-20 22:45 30.71417 -81.40681 37291 ft 424 kts 344°
2026-04-20 22:45 30.77266 -81.40992 37290 ft 424 kts 344°
2026-04-20 22:46 30.83165 -81.41306 37282 ft 424 kts 344°
2026-04-20 22:46 30.89062 -81.41621 37281 ft 424 kts 344°
2026-04-20 22:47 30.94952 -81.41935 37262 ft 424 kts 344°
2026-04-20 22:47 31.00837 -81.42249 37258 ft 422 kts 345°
2026-04-20 22:48 31.06703 -81.42564 37271 ft 422 kts 345°
2026-04-20 22:48 31.12566 -81.42878 37267 ft 422 kts 345°
2026-04-20 22:49 31.18437 -81.43193 37269 ft 422 kts 345°
2026-04-20 22:49 31.24301 -81.43502 37324 ft 423 kts 346°
2026-04-20 22:50 31.30192 -81.43577 37276 ft 421 kts 347°
2026-04-20 22:50 31.36029 -81.43659 37271 ft 422 kts 347°
2026-04-20 22:51 31.41906 -81.43745 37268 ft 422 kts 347°
2026-04-20 22:51 31.47830 -81.43495 37190 ft 444 kts
2026-04-20 22:52 31.50811 -81.42365 37359 ft 452 kts
2026-04-20 22:52 31.53797 -81.41191 37218 ft 455 kts
2026-04-20 22:52 31.59771 -81.38810 37280 ft 454 kts
2026-04-20 22:53 31.65765 -81.36357 37247 ft 457 kts
2026-04-20 22:53 31.71764 -81.33889 37247 ft 457 kts
2026-04-20 22:54 31.77764 -81.31416 37314 ft 457 kts
2026-04-20 22:54 31.83745 -81.28948 37217 ft 453 kts
2026-04-20 22:55 31.89663 -81.26502 37222 ft 455 kts
2026-04-20 22:55 31.95646 -81.24104 37208 ft 446 kts 360°
2026-04-20 22:56 31.98614 -81.23706 37216 ft 417 kts 347°
2026-04-20 22:56 32.01528 -81.23590 37212 ft 425 kts 350°
2026-04-20 22:56 32.07416 -81.23213 37320 ft 424 kts 350°
2026-04-20 22:57 32.13289 -81.22904 37252 ft 421 kts 349°
2026-04-20 22:57 32.19152 -81.22611 37259 ft 422 kts 349°
2026-04-20 22:58 32.25019 -81.22319 37254 ft 422 kts 349°
2026-04-20 22:58 32.30878 -81.22028 37255 ft 422 kts 349°
2026-04-20 22:59 32.36741 -81.21735 37234 ft 421 kts 349°
2026-04-20 22:59 32.42590 -81.21443 37243 ft 421 kts 350°
2026-04-20 23:00 32.48448 -81.21103 37236 ft 427 kts 354°
2026-04-20 23:00 32.54378 -81.19761 37267 ft 436 kts 358°
2026-04-20 23:01 32.60319 -81.18409 37299 ft 435 kts 358°
2026-04-20 23:01 32.66268 -81.17041 37236 ft 434 kts 358°
2026-04-20 23:02 32.72211 -81.15671 37242 ft 435 kts 358°
2026-04-20 23:02 32.78155 -81.14298 37239 ft 435 kts 358°
2026-04-20 23:03 32.84103 -81.12923 37237 ft 435 kts 358°
2026-04-20 23:03 32.90045 -81.11547 37231 ft 434 kts 359°
2026-04-20 23:04 32.95941 -81.10181 37239 ft 435 kts 359°
2026-04-20 23:04 33.01879 -81.08802 37240 ft 434 kts 359°
2026-04-20 23:05 33.07816 -81.07422 37235 ft 435 kts 359°
2026-04-20 23:05 33.13752 -81.06040 37234 ft 435 kts 359°
2026-04-20 23:06 33.19688 -81.04657 37232 ft 435 kts 359°
2026-04-20 23:06 33.25627 -81.03270 37231 ft 435 kts 359°
2026-04-20 23:07 33.31564 -81.01883 37234 ft 435 kts 359°
2026-04-20 23:07 33.37492 -81.00494 37271 ft 434 kts 359°
2026-04-20 23:08 33.43415 -80.99107 37238 ft 433 kts 359°
2026-04-20 23:08 33.49336 -80.97717 37228 ft 434 kts 360°
2026-04-20 23:09 33.55255 -80.96326 37216 ft 433 kts 359°
2026-04-20 23:09 33.61174 -80.94932 37225 ft 433 kts 359°
2026-04-20 23:10 33.67078 -80.93540 37228 ft 430 kts
2026-04-20 23:10 33.72947 -80.92156 37223 ft 430 kts
2026-04-20 23:11 33.78817 -80.90769 37231 ft 430 kts
2026-04-20 23:11 33.84692 -80.89390 37208 ft 429 kts 358°
2026-04-20 23:12 33.90575 -80.88354 37246 ft 427 kts 358°
2026-04-20 23:12 33.96419 -80.87294 37209 ft 424 kts 358°
2026-04-20 23:13 34.02265 -80.86225 37196 ft 424 kts 358°
2026-04-20 23:13 34.08106 -80.85155 37233 ft 425 kts 358°
2026-04-20 23:14 34.13953 -80.84083 37270 ft 425 kts 358°
2026-04-20 23:14 34.19803 -80.83024 37220 ft 425 kts 359°
2026-04-20 23:15 34.25664 -80.81964 37229 ft 426 kts 359°
2026-04-20 23:15 34.31524 -80.80902 37227 ft 426 kts 359°
2026-04-20 23:16 34.37348 -80.79845 37229 ft 426 kts 359°
2026-04-20 23:16 34.43253 -80.78772 37227 ft 427 kts 359°
2026-04-20 23:17 34.49101 -80.77707 37226 ft 428 kts 359°
2026-04-20 23:17 34.54988 -80.76635 37220 ft 428 kts 359°
2026-04-20 23:18 34.60836 -80.75567 37223 ft 428 kts 359°
2026-04-20 23:18 34.66729 -80.74490 37246 ft 428 kts 360°
2026-04-20 23:19 34.72675 -80.73402 37227 ft 428 kts 360°
2026-04-20 23:19 34.78566 -80.72323 37226 ft 428 kts 360°
2026-04-20 23:20 34.84424 -80.71247 37221 ft 428 kts 360°
2026-04-20 23:20 34.90324 -80.70163 37262 ft 428 kts
2026-04-20 23:21 34.96196 -80.69082 37222 ft 426 kts
2026-04-20 23:21 35.02066 -80.68000 37233 ft 426 kts
2026-04-20 23:22 35.07934 -80.66916 37232 ft 427 kts
2026-04-20 23:22 35.13797 -80.65832 37231 ft 426 kts
2026-04-20 23:23 35.19652 -80.64748 37225 ft 423 kts
2026-04-20 23:23 35.25464 -80.63670 37239 ft 423 kts
2026-04-20 23:24 35.31278 -80.62591 37234 ft 423 kts
2026-04-20 23:24 35.37095 -80.61509 37231 ft 423 kts
2026-04-20 23:25 35.42871 -80.60433 37231 ft 422 kts
2026-04-20 23:25 35.48665 -80.59352 37228 ft 421 kts
2026-04-20 23:26 35.54462 -80.58270 37222 ft 421 kts
2026-04-20 23:26 35.60255 -80.57186 37225 ft 422 kts
2026-04-20 23:27 35.66057 -80.56099 37222 ft 421 kts
2026-04-20 23:27 35.71851 -80.55012 37212 ft 421 kts
2026-04-20 23:28 35.77647 -80.53923 37211 ft 421 kts
2026-04-20 23:28 35.83444 -80.52833 37204 ft 423 kts
2026-04-20 23:29 35.89272 -80.51734 37221 ft 424 kts
2026-04-20 23:29 35.95100 -80.50634 37205 ft 423 kts
2026-04-20 23:30 36.00926 -80.49533 37198 ft 424 kts
2026-04-20 23:30 36.05804 -80.48610 37195 ft 423 kts
2026-04-20 23:31 36.11592 -80.47513 37205 ft 424 kts
2026-04-20 23:31 36.17410 -80.46409 37223 ft 422 kts
2026-04-20 23:32 36.23215 -80.45306 37233 ft 422 kts
2026-04-20 23:32 36.29020 -80.44201 37242 ft 422 kts
2026-04-20 23:33 36.34824 -80.43095 37255 ft 422 kts
2026-04-20 23:33 36.40619 -80.41984 37257 ft 421 kts
2026-04-20 23:34 36.46394 -80.40808 37264 ft 421 kts
2026-04-20 23:34 36.52172 -80.39635 37258 ft 421 kts
2026-04-20 23:35 36.60836 -80.37874 37292 ft 420 kts
2026-04-20 23:36 36.66576 -80.36706 37252 ft 416 kts
2026-04-20 23:36 36.72294 -80.35540 37253 ft 417 kts
2026-04-20 23:37 36.78014 -80.34702 37285 ft 414 kts 359°
2026-04-20 23:37 36.83754 -80.33898 37238 ft 416 kts 359°
2026-04-20 23:38 36.89485 -80.33076 37253 ft 412 kts 359°
2026-04-20 23:38 36.95173 -80.32262 37273 ft 412 kts 359°
2026-04-20 23:39 37.00866 -80.31445 37288 ft 412 kts 359°
2026-04-20 23:39 37.06567 -80.30626 37289 ft 412 kts 359°
2026-04-20 23:40 37.12259 -80.29808 37292 ft 411 kts 360°
2026-04-20 23:40 37.17932 -80.28991 37308 ft 411 kts 359°
2026-04-20 23:41 37.23608 -80.28172 37306 ft 411 kts 359°
2026-04-20 23:41 37.29290 -80.27351 37319 ft 412 kts 359°
2026-04-20 23:42 37.34150 -80.26646 37286 ft 410 kts 360°
2026-04-20 23:42 37.39698 -80.25844 37274 ft 410 kts 359°
2026-04-20 23:43 37.45350 -80.25024 37313 ft 411 kts 360°
2026-04-20 23:43 37.51030 -80.24197 37292 ft 410 kts 360°
2026-04-20 23:44 37.56691 -80.23373 37329 ft 411 kts 360°
2026-04-20 23:44 37.62377 -80.22543 37300 ft 411 kts 360°
2026-04-20 23:45 37.68063 -80.21703 37295 ft 411 kts 360°
2026-04-20 23:45 37.73745 -80.20858 37275 ft 411 kts
2026-04-20 23:46 37.75818 -80.20551 37296 ft 408 kts 360°
2026-04-20 23:46 37.77244 -80.20338 37368 ft 408 kts 360°
2026-04-20 23:47 37.79762 -80.19962 37353 ft 412 kts 360°
2026-04-20 23:48 37.83075 -80.19466 37282 ft 410 kts
2026-04-20 23:49 37.88617 -80.18638 37331 ft 413 kts
2026-04-20 23:49 37.94306 -80.17787 37322 ft 411 kts
2026-04-20 23:50 37.99192 -80.17054 37323 ft 411 kts 360°
2026-04-20 23:50 38.04884 -80.16200 37338 ft 412 kts 360°
2026-04-20 23:51 38.10582 -80.15344 37341 ft 412 kts
2026-04-20 23:51 38.16281 -80.14486 37341 ft 413 kts
2026-04-20 23:52 38.21154 -80.13752 37326 ft 412 kts
2026-04-20 23:52 38.26862 -80.12890 37354 ft 412 kts
2026-04-20 23:53 38.32540 -80.12032 37354 ft 411 kts